EUTELSAT HOTBIRD 13C

Last updated on Sat Jun 21 2025 00:02:43 GMT+0000 (Coordinated Universal Time)

1 33459U 08065A 25171.51625206 -.00000090 00000+0 00000+0 0 9994 2 33459 2.0184 83.5151 0003242 2.1479 356.6618 1.00270863 43715
UTC large
Height (km)
Speed (km/s)
/
Latitude / Longitude
Inclination (degrees)
Orbital Period (minutes)
Azimuth
Elevation
Range (km)
Doppler Factor

Next 0 passes for location: London (51.5072 / 0.1276)

Sorry there are no passes over London.